Regional Weather Roundup
Issued by NWS State College, PA

Home | Current Version | Previous Version | Graphics & Text | Print | Product List | Glossary Off
Versions: 1 2 3 4 5 6 7 8 9 10 11 12 13 14 15 16 17 18 19 20 21 22 23 24 25 26 27 28 29 30 31 32 33 34 35 36 37 38 39 40 41 42 43 44 45 46 47 48 49 50

000
ASUS41 KCTP 121903
RWRCTP

REGIONAL WEATHER ROUNDUP
NATIONAL WEATHER SERVICE STATE COLLEGE PA
200 PM EST FRI FEB 12 2016

Note: "fair" indicates few or no clouds below 12,000 feet with no
significant weather and/or obstructions to visibility.

* = STATION THAT DOES NOT REPORT PRECIPITATION /E.G. RAIN...SNOW...ETC/
    THUNDER OR FOG.

PAZ002>004-007>009-013>016-020>023-029>032-122000-
WESTERN PENNSYLVANIA

CITY           SKY/WX    TMP DP  RH WIND       PRES   REMARKS
ERIE           CLOUDY    22   5  48 SW15G24   29.95F WCI   9
MEADVILLE      CLOUDY    20   5  52 SW10G21   29.92F WCI   9
FRANKLIN*      CLOUDY    18   3  53 S15       29.95F WCI   3
NEW CASTLE     FLURRIES  22   9  57 SW10G17   29.99F WCI  11
BEAVER COUNTY  LGT SNOW  19  10  68 SW10      29.98F WCI   8
BUTLER*        CLOUDY    18   7  62 SW12G17   30.01F WCI   5
PITTSBURGH INT CLOUDY    20   5  52 SW9       29.99F WCI   9
PITTSBURGH     CLOUDY    20   6  55 SW12      29.99F WCI   8
INDIANA*       SUNNY     18  10  73 SW12      30.01F HAZE    WCI   5
LATROBE        LGT SNOW  18  10  73 SW12      30.03F WCI   5
WASHINGTON CO* CLOUDY    19   7  58 SW6       30.00F WCI  11
$$

PAZ004>006-010>012-017>019-024>028-033>037-041-042-045-046-049>053-122000-
CENTRAL PENNSYLVANIA

CITY           SKY/WX    TMP DP  RH WIND       PRES   REMARKS
BRADFORD       LGT SNOW  14   5  67 SW10      29.86F WCI   1
DUBOIS         CLOUDY    14   5  67 SW10G20   29.92F WCI   1
CLEARFIELD     LGT SNOW  17   5  59 SW12      29.96F WCI   4
JOHNSTOWN      LGT SNOW  14   6  70 SW10      29.91F WCI   1
ALTOONA        CLOUDY    19   8  62 SW12      29.98F WCI   7
STATE COLLEGE  NOT AVBL
WILLIAMSPORT   CLOUDY    21   5  50 S3        30.04F
SELINSGROVE    CLOUDY    22   4  46 S10       30.07F WCI  11
FT INDIANTOWN  NOT AVBL
CAPITAL CITY   MOSUNNY   23   2  40 SW6       30.09F
HARRISBURG     CLOUDY    24   5  44 W6        30.09F
YORK           CLOUDY    22   4  46 CALM      30.08F
$$

PAZ038>040-043-044-047-048-054-055-060>062-067>071-122000-
EASTERN PENNSYLVANIA

CITY           SKY/WX    TMP DP  RH WIND       PRES   REMARKS
SCRANTON       CLOUDY    19   4  51 SW13G20   30.00F WCI   6
MOUNT POCONO   CLOUDY    16  -1  47 SW7       29.92F WCI   6
ALLENTOWN      CLOUDY    22   6  50 W10       30.08F WCI  11
QUAKERTOWN*    MOCLDY    23   5  46 SW9       30.09F WCI  13
READING        CLOUDY    22   5  48 SW9       30.09F WCI  12
LANCASTER      MOSUNNY   21   4  47 SW10      30.09F WCI  10
COATESVILLE    PTCLDY    21   3  45 VRB5G12   30.09F WCI  15
POTTSTOWN      PTSUNNY   21   2  43 SW6       30.12F WCI  13
BLUE BELL        N/A     23   5  46 SW8       30.10F WCI  14
DOYLESTOWN     CLOUDY    21   0  39 SW7       30.08F WCI  12
WILLOW GROVE   NOT AVBL
NORTH PHILA    CLOUDY    25   4  40 W10       30.13F WCI  15
PHILADELPHIA   CLOUDY    25   0  33 SW10G18   30.13F WCI  15
$$



USA.gov is the U.S. government's official web portal to all federal, state and local government web resources and services.